De Queen, AR

1:04 AM CDT on October 23, 2019 (GMT -0500)
Helms Sevier County

Weather History for KDEQ - August, 2019

Change the Weather History Date:

Saturday, August 24, 2019

  Actual Average Record
Temperature  
Mean Temperature 82 °F 81 °F  
Max Temperature 90 °F 94 °F 106 °F (1987)
Min Temperature 73 °F 68 °F 57 °F (1980)
Degree Days  
Heating Degree Days 0 0  
Month to date heating degree days 0 0  
Since 1 June heating degree days 0 0  
Since 1 July heating degree days 0 0  
Cooling Degree Days 16 16  
Month to date cooling degree days 467 397  
Year to date cooling degree days 1604 1489  
Since 1 June cooling degree days 1331 1272  
Growing Degree Days 32 (Base 50)    
Moisture  
Dew Point 75 °F    
Average Humidity 85    
Maximum Humidity 100    
Minimum Humidity 63    
Precipitation  
Precipitation 0.00 in 0.08 in 1.12 in (1979)
Month to date precipitation 0.35 1.67  
Year to date precipitation 37.43 31.09  
Snow  
Snow 0.00 in - - ()
Month to date snowfall 0.0  
Since 1 June snowfall 0.0  
Since 1 July snowfall 0.0  
Snow Depth 0.00 in    
Sea Level Pressure  
Sea Level Pressure 29.94 in    
Wind  
Wind Speed 3 mph ()    
Max Wind Speed 12 mph    
Max Gust Speed 15 mph    
Visibility 9.2 miles    
Events      
T = Trace of Precipitation, MM = Missing Value Source: Averaged Metar Reports

Daily Weather History Graph

Daily Weather History Graph

Search for Another Location

Airport or City:

Astronomy

Aug. 24, 2019 Rise Set
Actual Time 6:45 AM CDT 7:53 PM CDT
Civil Twilight 6:19 AM CDT 8:19 PM CDT
Nautical Twilight 5:48 AM CDT 8:50 PM CDT
Astronomical Twilight 5:16 AM CDT 9:22 PM CDT
Moon 12:44 AM CDT (8/24) 3:03 PM CDT (8/24)
Length of Visible Light 14h 00m
Length of Day
13h 08m
Last Quarter, 39% of the Moon is Illuminated
Aug 24
Last Quarter
Aug 30
New
Sep 5
First Quarter
Sep 13
Full
Sep 21
Last Quarter

Hourly Weather History & Observations

Time (CDT) Temp. Heat Index Dew Point Humidity Pressure Visibility Wind Dir Wind Speed Gust Speed Precip Events Conditions
12:53 AM 75.9 °F - 73.0 °F 91% 29.93 in 10.0 mi East 3.5 mph - N/A   Scattered Clouds
1:53 AM 75.9 °F - 73.9 °F 94% 29.95 in 10.0 mi NE 5.8 mph - N/A   Scattered Clouds
2:53 AM 75.0 °F - 73.9 °F 96% 29.95 in 10.0 mi East 3.5 mph - N/A   Scattered Clouds
3:50 AM 75.2 °F - 75.2 °F 100% 29.97 in 10.0 mi Calm Calm - N/A   Mostly Cloudy
3:53 AM 75.0 °F - 75.0 °F 100% 29.95 in 10.0 mi Calm Calm - N/A   Mostly Cloudy
4:44 AM 75.0 °F - 75.0 °F 100% 29.95 in 10.0 mi ESE 4.6 mph - N/A   Scattered Clouds
4:53 AM 75.0 °F - 75.0 °F 100% 29.93 in 10.0 mi ESE 4.6 mph - N/A   Partly Cloudy
5:27 AM 75.0 °F - 75.0 °F 100% 29.96 in 9.0 mi NNE 3.5 mph - N/A   Scattered Clouds
5:53 AM 75.0 °F - 73.9 °F 96% 29.95 in 8.0 mi Calm Calm - N/A   Mostly Cloudy
6:53 AM 73.0 °F - 73.0 °F 100% 29.95 in 4.0 mi Calm Calm - N/A   Clear
7:13 AM 73.9 °F - 73.9 °F 100% 29.97 in 4.0 mi Calm Calm - N/A   Scattered Clouds
7:43 AM 75.0 °F - 75.0 °F 100% 29.97 in 4.0 mi Calm Calm - N/A   Mostly Cloudy
7:53 AM 75.0 °F - 75.0 °F 100% 29.95 in 5.0 mi Calm Calm - N/A   Mostly Cloudy
8:53 AM 78.1 °F - 75.9 °F 93% 29.95 in 9.0 mi Calm Calm - N/A   Overcast
9:53 AM 80.1 °F 85.4 °F 75.9 °F 87% 29.95 in 9.0 mi NE 4.6 mph - N/A   Overcast
10:53 AM 82.9 °F 90.8 °F 75.9 °F 79% 29.95 in 10.0 mi Calm Calm - N/A   Mostly Cloudy
11:01 AM 84.0 °F 92.6 °F 75.9 °F 76% 29.97 in 10.0 mi North 4.6 mph - N/A   Scattered Clouds
11:28 AM 84.9 °F 94.1 °F 75.9 °F 74% 29.98 in 10.0 mi NNE 4.6 mph - N/A   Mostly Cloudy
11:42 AM 84.9 °F 94.1 °F 75.9 °F 74% 29.98 in 10.0 mi Variable 3.5 mph - N/A   Mostly Cloudy
11:51 AM 84.2 °F 92.3 °F 75.2 °F 74% 29.98 in 10.0 mi East 4.6 mph - N/A   Mostly Cloudy
11:53 AM 86.0 °F 96.0 °F 75.9 °F 72% 29.96 in 10.0 mi ENE 4.6 mph - N/A   Mostly Cloudy
12:01 PM 86.0 °F 95.1 °F 75.0 °F 70% 29.97 in 10.0 mi East 4.6 mph - N/A   Partly Cloudy
12:53 PM 88.0 °F 98.5 °F 75.9 °F 67% 29.94 in 10.0 mi SE 6.9 mph - N/A   Mostly Cloudy
1:53 PM 88.0 °F 98.5 °F 75.9 °F 67% 29.92 in 10.0 mi East 8.1 mph - N/A   Clear
2:53 PM 89.1 °F 100.2 °F 75.9 °F 65% 29.90 in 10.0 mi East 9.2 mph - N/A   Clear
3:53 PM 90.0 °F 101.3 °F 75.9 °F 63% 29.87 in 10.0 mi ESE 6.9 mph - N/A   Clear
4:53 PM 89.1 °F 99.1 °F 75.0 °F 63% 29.87 in 10.0 mi Calm Calm - N/A   Partly Cloudy
5:53 PM 88.0 °F 100.2 °F 77.0 °F 70% 29.88 in 10.0 mi Calm Calm - N/A   Clear
6:53 PM 84.9 °F 98.9 °F 80.1 °F 85% 29.87 in 10.0 mi Calm Calm - N/A   Clear
7:53 PM 82.9 °F 92.8 °F 78.1 °F 85% 29.86 in 10.0 mi East 3.5 mph - N/A   Clear
8:53 PM 82.0 °F 89.4 °F 75.9 °F 82% 29.87 in 10.0 mi East 3.5 mph - N/A   Scattered Clouds
10:53 PM 80.1 °F 85.4 °F 75.9 °F 87% 29.91 in 10.0 mi East 6.9 mph - N/A   Partly Cloudy
11:53 PM 80.1 °F 85.1 °F 75.0 °F 85% 29.91 in 10.0 mi East 4.6 mph - N/A   Clear